TimeMST,TemperatureF,Dew PointF,Humidity,Sea Level PressureIn,VisibilityMPH,Wind Direction,Wind SpeedMPH,Gust SpeedMPH,PrecipitationIn,Events,Conditions,WindDirDegrees,DateUTC
12:53 AM,23.0,8.1,53,30.17,10.0,Calm,Calm,-,N/A,,Clear,0,2012-11-15 07:53:00
1:53 AM,21.9,6.1,51,30.18,10.0,West,3.5,-,N/A,,Clear,260,2012-11-15 08:53:00
2:53 AM,21.9,8.1,55,30.20,10.0,Calm,Calm,-,N/A,,Clear,0,2012-11-15 09:53:00
3:53 AM,27.0,10.0,49,30.21,10.0,North,9.2,-,N/A,,Clear,350,2012-11-15 10:53:00
4:53 AM,28.9,14.0,54,30.26,10.0,WSW,5.8,-,N/A,,Clear,250,2012-11-15 11:53:00
5:53 AM,28.0,15.1,58,30.34,10.0,West,4.6,-,N/A,,Clear,260,2012-11-15 12:53:00
6:53 AM,28.0,18.0,66,30.39,10.0,NNW,4.6,-,N/A,,Clear,330,2012-11-15 13:53:00
7:53 AM,37.0,21.9,54,30.40,10.0,Calm,Calm,-,N/A,,Clear,0,2012-11-15 14:53:00
8:53 AM,43.0,27.0,53,30.43,10.0,Calm,Calm,-,N/A,,Clear,0,2012-11-15 15:53:00
9:53 AM,46.0,28.9,51,30.43,10.0,South,3.5,-,N/A,,Clear,170,2012-11-15 16:53:00
10:53 AM,50.0,30.0,46,30.41,10.0,Calm,Calm,-,N/A,,Clear,0,2012-11-15 17:53:00
11:53 AM,50.0,28.0,43,30.38,10.0,ENE,4.6,-,N/A,,Mostly Cloudy,60,2012-11-15 18:53:00
12:53 PM,52.0,28.0,40,30.35,10.0,South,4.6,-,N/A,,Clear,170,2012-11-15 19:53:00
1:53 PM,53.1,28.9,40,30.34,10.0,SSE,5.8,-,N/A,,Scattered Clouds,160,2012-11-15 20:53:00
2:53 PM,53.1,27.0,37,30.34,10.0,SE,8.1,-,N/A,,Clear,140,2012-11-15 21:53:00
3:53 PM,52.0,25.0,35,30.33,10.0,SSE,9.2,-,N/A,,Clear,150,2012-11-15 22:53:00
4:53 PM,48.9,25.0,39,30.35,10.0,SE,6.9,-,N/A,,Mostly Cloudy,130,2012-11-15 23:53:00
5:53 PM,39.0,19.0,45,30.40,10.0,East,4.6,-,N/A,,Clear,90,2012-11-16 00:53:00
6:53 PM,37.0,19.9,50,30.42,10.0,East,4.6,-,N/A,,Clear,100,2012-11-16 01:53:00
7:53 PM,34.0,19.0,54,30.41,10.0,Calm,Calm,-,N/A,,Clear,0,2012-11-16 02:53:00
8:53 PM,30.9,17.1,57,30.41,10.0,ENE,3.5,-,N/A,,Clear,60,2012-11-16 03:53:00
9:53 PM,28.0,15.1,58,30.41,10.0,Calm,Calm,-,N/A,,Clear,0,2012-11-16 04:53:00
10:53 PM,27.0,15.1,61,30.38,10.0,North,3.5,-,N/A,,Clear,360,2012-11-16 05:53:00
11:53 PM,25.0,14.0,63,30.38,10.0,Calm,Calm,-,N/A,,Clear,0,2012-11-16 06:53:00